Overview Statistics Trail Chart Weather Telemetry Raw packets
 

This is the latest recevied weather packets stored in our database for station/object 4S6DRJ-13. If no packets are shown the sender has not sent any weather packets the latest 10 day(s).

<< 450 451 452 453 454 455 456 >>
Time Temp. Humidity Pressure Rain* Wind** Luminosity Snow
1787771364 25.56° C 94% 1010.8 hPa 0 mm 0.89 m/s, 89° 0 W/m² -
1787771303 25.56° C 94% 1010.8 hPa 0 mm 1.79 m/s, 123° 0 W/m² -
1787771243 25.56° C 94% 1010.9 hPa 0 mm 1.34 m/s, 103° 0 W/m² -
1787771181 25.56° C 94% 1010.9 hPa 0 mm 0.45 m/s, 111° 0 W/m² -
1787771120 25.56° C 94% 1011 hPa 0 mm 0.45 m/s, 139° 0 W/m² -
1787771059 25.56° C 94% 1011 hPa 0 mm 0.89 m/s, 123° 0 W/m² -
1787770998 25.56° C 94% 1010.9 hPa 0 mm 0.89 m/s, 112° 0 W/m² -
1787770937 25.56° C 94% 1011 hPa 0 mm 0.45 m/s, 171° 0 W/m² -
1787770876 25.56° C 94% 1010.8 hPa 0 mm 0.45 m/s, 147° 0 W/m² -
1787770815 25.56° C 94% 1011 hPa 0 mm 0.89 m/s, 116° 0 W/m² -
1787770754 25.56° C 94% 1011.1 hPa 0 mm 0.89 m/s, 123° 0 W/m² -
1787770693 25.56° C 94% 1011.1 hPa 0 mm 0.45 m/s, 159° 0 W/m² -
1787770632 25.56° C 94% 1011.3 hPa 0 mm 0.89 m/s, 151° 0 W/m² -
1787770571 25.56° C 94% 1011.1 hPa 0 mm 1.34 m/s, 120° 0 W/m² -
1787770510 25.56° C 94% 1011.1 hPa 0 mm 0.89 m/s, 164° 0 W/m² -
1787770449 25.56° C 94% 1010.9 hPa 0 mm 0 m/s 0 W/m² -
1787770388 25.56° C 94% 1010.9 hPa 0 mm 0.45 m/s, 135° 0 W/m² -
1787770327 25.56° C 94% 1011.1 hPa 0 mm 0 m/s 0 W/m² -
1787770266 25.56° C 94% 1011.1 hPa 0 mm 0.89 m/s, 123° 0 W/m² -
1787770206 25.56° C 94% 1011.2 hPa 0 mm 0.89 m/s, 127° 0 W/m² -
1787770144 25.56° C 94% 1011 hPa 0 mm 1.34 m/s, 100° 0 W/m² -
1787770083 25.56° C 94% 1011.3 hPa 0 mm 0.45 m/s, 119° 0 W/m² -
1787770022 25.56° C 94% 1011.2 hPa 0 mm 0 m/s 0 W/m² -
1787769961 25.56° C 94% 1011.2 hPa 0 mm 0.45 m/s, 107° 0 W/m² -
1787769900 25.56° C 94% 1011.2 hPa 0 mm 0 m/s 0 W/m² -

* Rain latest hour (hover to see other rain measurements)
** Current wind speed in m/s (hover to see current wind gust speed)